Location: STAR School
(35.3054°N, 111.2976°W)
Time: 09:21:23
(UTC-07:00)

Transit 2A Rocket - Visible Passes

Search period start: 25 May 2019 00:00
Search period end: 04 June 2019 00:00
Orbit: 585 x 918 km, 66.7° (Epoch: 24 May)

Date Brightness Start Highest point End Pass type
(mag) Time Alt. Az. Time Alt. Az. Time Alt. Az.
25 May 6.6 01:46:18 10° N 01:51:06 30° NE 01:53:54 19° ESE visible
25 May 5.7 03:29:02 10° NW 03:33:36 30° WSW 03:33:41 30° WSW visible
26 May 7.4 01:04:28 10° N 01:08:14 19° NE 01:11:07 12° E visible
26 May 5.0 02:46:04 10° NW 02:50:55 54° W 02:50:55 54° W visible
27 May 7.8 00:23:34 10° NNE 00:25:13 11° NE 00:26:49 10° ENE visible
27 May 5.0 02:03:27 10° NNW 02:08:26 72° N 02:08:26 72° N visible
28 May 5.9 01:21:06 10° NNW 01:26:09 43° NE 01:26:09 43° NE visible
28 May 6.9 03:04:44 10° WNW 03:06:00 14° WNW 03:06:00 14° WNW visible
29 May 6.7 00:39:02 10° N 00:43:30 25° NE 00:44:01 25° ENE visible
29 May 6.5 02:21:22 10° NW 02:23:52 24° WNW 02:23:52 24° WNW visible
29 May 7.3 23:57:24 10° N 00:00:35 15° NE 00:01:58 14° ENE visible
30 May 6.0 01:38:32 10° NNW 01:41:50 37° NW 01:41:50 37° NW visible
31 May 5.9 00:56:01 10° NNW 00:59:54 44° N 00:59:54 44° N visible
01 Jun 6.3 00:13:46 10° N 00:18:02 34° NE 00:18:02 34° NE visible
01 Jun 7.2 01:56:55 10° NW 01:57:54 14° WNW 01:57:54 14° WNW visible
01 Jun 6.8 23:31:50 10° N 23:35:53 21° NE 23:36:13 21° NE visible
02 Jun 6.7 01:13:46 10° NW 01:16:06 24° NW 01:16:06 24° NW visible
02 Jun 7.3 22:50:31 10° NNE 22:52:55 13° NE 22:54:28 11° ENE visible
03 Jun 6.1 00:31:03 10° NNW 00:34:21 38° NNW 00:34:21 38° NNW visible
03 Jun 6.0 23:48:37 10° NNW 23:52:39 42° NNE 23:52:39 42° NNE visible
